Location: Lafig�re
(44.4503°N, 4.0357°E)
Time: 15:25:06
(UTC+00:00)

Vanguard 2 Rocket - Pass Details

Date: 27 January 2021
Orbit: 554 x 3325 km, 32.9° (Epoch: 06 March)

Event Time Altitude Azimuth Distance (km) Brightness Sun altitude
Rises 14:47:16 0° 244° (WSW) 6,911 12.7 16.2°
Reaches altitude 10° 14:52:39 10° 240° (WSW) 5,569 12.7 15.5°
Maximum altitude 15:06:41 44° 176° (S) 2,519 9.8 13.8°
Drops below altitude 10° 15:15:06 10° 108° (ESE) 3,397 9.6 12.7°
Sets 15:17:34 0° 101° (E) 4,077 9.9 12.4°
